Regional Weather Roundup
Issued by NWS Spokane, WA

Home | Current Version | Previous Version | Text Only | Print | Product List | Glossary On
Versions: 1 2 3 4 5 6 7 8 9 10 11 12 13 14 15 16 17 18 19 20 21 22 23 24 25 26 27 28 29 30 31 32 33 34 35 36 37 38 39 40 41 42 43 44 45 46 47 48 49 50
000
NZUS01 KOTX 232010
RWROTX
EASTERN WASHINGTON/NORTHERN IDAHO ROUNDUP
NATIONAL WEATHER SERVICE, SPOKANE WA
1200 PM PST SUN NOV 23 2014

Note: "fair" indicated few or no clouds below 12,000 feet with no
significant weather and/or obstructions to visibility.

...NORTHEAST WASHINGTON AND NORTHERN IDAHO PANHANDLE...

CITY           SKY/WX    TMP DP  RH WIND       PRES   REMARKS
SPOKANE INTL   CLOUDY    39  35  86 SW24G32   30.01F
SPOKANE DOWNTO CLOUDY    41  35  79 SW15      30.04F
COEUR D ALENE  CLOUDY    37  34  87 S7        30.03F
DEER PARK      RAIN      36  34  92 S5        30.04F FOG
SANDPOINT      LGT RAIN  34  34 100 SW5       30.03F WCI  30

...SOUTHEAST WASHINGTON AND SOUTHERN IDAHO PANHANDLE...

CITY           SKY/WX    TMP DP  RH WIND       PRES   REMARKS
WALLA WALLA    CLOUDY    52  33  48 S20       30.14F
PULLMAN/MOSCOW CLOUDY    44  32  62 SW17      30.10F
LEWISTON       CLOUDY    47  35  63 S12       30.13F
LOWELL           N/A     39  37  92 CALM      30.21F

...COLUMBIA BASIN...

CITY           SKY/WX    TMP DP  RH WIND       PRES   REMARKS
EPHRATA        PTSUNNY   48  35  60 SW20G26   30.01F
MOSES LAKE     PTSUNNY   48  37  65 S17       30.03F
TRI CITIES     CLOUDY    54  37  52 SW21G32   30.12F
HERMISTON      PTSUNNY   56  34  43 SW18G29   30.15F
PENDLETON      PTSUNNY   52  32  46 S17       30.15F

...EAST SLOPES CASCADES...

CITY           SKY/WX    TMP DP  RH WIND       PRES   REMARKS
THE DALLES     MOSUNNY   59  35  40 W22G28    30.15F
YAKIMA         CLOUDY    50  37  61 W16       30.09F
ELLENSBURG     LGT RAIN  41  37  86 NW12      30.05F
WENATCHEE      LGT RAIN  41  35  79 W5        30.02R
OMAK           CLOUDY    35  32  88 E3        29.99F

...SOUTHERN BRITISH COLUMBIA...

CITY           SKY/WX    TMP DP  RH WIND       PRES   REMARKS
PENTICTON      PTSUNNY   41  32  70 S17G26    29.94F
CASTLEGAR      LGT SNOW  34  32  93 S12       29.98F WCI  25
CRANBROOK      CLOUDY    34  27  75 S9        29.91F WCI  26

...WESTERN MONTANA...

CITY           SKY/WX    TMP DP  RH WIND       PRES   REMARKS
MISSOULA       CLOUDY    37  28  70 SE8       30.08F

...NEIGHBORING CITIES...

CITY           SKY/WX    TMP DP  RH WIND       PRES   REMARKS
SEATTLE        PTSUNNY   52  46  80 SW8       30.12R
CALGARY        CLOUDY    32  21  64 S6        29.69F WCI  26



USA.gov is the U.S. government's official web portal to all federal, state and local government web resources and services.